Regional Weather Roundup
Issued by NWS

Home | Current Version | Previous Version | Text Only | Print | Product List | Glossary Off
Versions: 1 2 3 4 5 6 7 8 9 10 11 12 13 14 15 16 17 18 19 20 21 22 23 24 25 26 27 28 29

000
ASUS45 KGTF 261410
RWRMT
MONTANA HOURLY WEATHER ROUNDUP
NATIONAL WEATHER SERVICE GREAT FALLS MT
800 AM MDT SUN APR 26 2015

NOTE: "FAIR" INDICATES FEW OR NO CLOUDS BELOW 12000 FEET WITH NO
SIGNIFICANT WEATHER AND/OR OBSTRUCTIONS TO VISIBILITY.

MTZ001>007-043-261500-
WEST OF THE DIVIDE

CITY           SKY/WX    TMP DP  RH WIND       PRES   REMARKS
KALISPELL      CLOUDY    42  28  57 N13       30.04R
MISSOULA       LGT RAIN  38  36  92 NW6       30.06R
BUTTE          LGT SNOW  31  29  92 W10       29.95R FOG     WCI  22
DEER LODGE       N/A     30  28  93 NW8       30.06R WCI  23
EUREKA           N/A     36  34  93 CALM      30.10R
HAMILTON         N/A     36  34  93 NE2       30.04R
LIBBY            N/A     37  36  93 CALM      30.11R
$$

MTZ008-052>055-261500-
SOUTHWEST MONTANA

CITY           SKY/WX    TMP DP  RH WIND       PRES   REMARKS
BOZEMAN        LGT RAIN  39  36  89 W9        29.93R
DILLON         LGT SNOW  33  31  92 N5        29.92R FOG
$$

MTZ009-010-012-014-046-048-049-054-261500-
EAST SLOPES AND CENTRAL MONTANA

CITY           SKY/WX    TMP DP  RH WIND       PRES   REMARKS
CUT BANK       CLOUDY    31  24  75 N12       30.10R WCI  22
GREAT FALLS    CLOUDY    30  24  78 N10       30.11R WCI  21
HELENA         LGT SNOW  32  30  92 NW9       30.05R VSB 1   WCI  24
$$

MTZ011-013-016-021-045-047-050-051-261500-
NORTH CENTRAL MONTANA

CITY           SKY/WX    TMP DP  RH WIND       PRES   REMARKS
HAVRE          CLOUDY    35  26  69 NW10      30.12R WCI  27
LEWISTOWN      CLOUDY    33  27  78 VRB5      30.07R
CHINOOK          N/A     36  27  69 NW9       30.13R WCI  29
FORT BENTON      N/A     34  27  75 CALM      30.15R
$$

MTZ017>020-022>042-056>058-061-062-261500-
EASTERN PLAINS

CITY           SKY/WX    TMP DP  RH WIND       PRES   REMARKS
BAKER          CLOUDY    38  37  97 NE14      30.02R WCI  30
BILLINGS       CLOUDY    38  36  92 NE15G21   30.00R WCI  29
GLASGOW        CLOUDY    37  31  78 NW13      30.08R WCI  29
JORDAN           N/A     39  32  76 N17       30.07R WCI  30
LIVINGSTON     MIX PCPN  37  35  92 E18       29.94R WCI  27
MILES CITY     FOG       38  38 100 N10       30.03R VSB<1/4 WCI  31
SIDNEY         CLOUDY    41  36  81 NW6       30.07R
WOLF POINT     CLOUDY    40  33  76 NW12G20   30.09R
BIG TIMBER       N/A     34  32  93 N12       30.00R WCI  25
FORSYTH          N/A     37  37 100 NW3       30.04R
PLENTYWOOD       N/A     36  34  93 NW14      30.04R WCI  27
POPLAR           N/A     39  34  81 W14       30.08R WCI  31
$$

REGIONAL REPORTS...DAKOTAS

CITY           SKY/WX    TMP DP  RH WIND       PRES   REMARKS
WILLISTON      CLOUDY    40  36  86 NW7       30.07R
MINOT          CLOUDY    47  44  90 CALM      30.01R FOG
DICKINSON      CLOUDY    43  40  89 N8        30.00R
BEACH          CLOUDY    37  37 100 N14       30.04R FOG     WCI  29
CROSBY         CLOUDY    37  37 100 W15       30.05R WCI  28
WATFORD CITY   CLOUDY    37  37 100 NW7       30.03S
BISMARCK       CLOUDY    48  46  93 SE6       30.04R FOG
GRAND FORKS    MOSUNNY   48  25  40 S13       30.12R
FARGO          SUNNY     48  16  27 SE9       30.10R
BUFFALO SD       N/A     43  40  89 NE14      29.93R
RAPID CITY     CLOUDY    43  42  97 N13       29.95R FOG
$$

REGIONAL REPORTS...WYOMING/IDAHO/WASHINGTON

CITY           SKY/WX    TMP DP  RH WIND       PRES   REMARKS
GILLETTE       CLOUDY    39  36  89 NE12      29.94R WCI  32
SHERIDAN       CLOUDY    39  35  86 CALM      29.98R
BUFFALO WY     LGT RAIN  37  34  89 N6        29.97R
CODY           CLOUDY    36  30  80 NW10      29.92R WCI  28
YELLOWSTONE LA   N/A     31  24  75 VRB5      29.86R
IDAHO FALLS    LGT RAIN  35  33  92 S16       29.87R FOG     WCI  25
SALMON         CLOUDY    39  34  81 CALM      29.97R
BOISE          SUNNY     37  27  67 NW10      30.05R WCI  30
SPOKANE        FOG       33  33 100 NE5       30.11R VSB 1/4
$$

REGIONAL REPORTS...ALBERTA

CITY           SKY/WX    TMP DP  RH WIND       PRES   REMARKS
EDMONTON       SUNNY     32  25  74 S2        30.13R
CALGARY        PTSUNNY   34  27  75 NW3       30.11R
LETHBRIDGE     PTSUNNY   32  25  74 NW9       30.15R WCI  24
MEDICINE HAT   CLOUDY    34  32  93 NW9       30.14R WCI  26
$$

REGIONAL REPORTS...SASKATCHEWAN

CITY           SKY/WX    TMP DP  RH WIND       PRES   REMARKS
SWIFT CURRENT  CLOUDY    30  28  93 NW18G24   30.03R WCI  18
REGINA         CLOUDY    34  30  86 W21G32    30.01R WCI  22
SASKATOON      FLURRIES  32  30  93 NW15      30.00R WCI  22
$$



USA.gov is the U.S. government's official web portal to all federal, state and local government web resources and services.